| time (UTC) | temp F | wind direction | speed MPH | gust MPH | rain 1hr in | rain 24hr in | rain mn in | humidity % | barometer mb |
| 20260504190112 | 61 | 284 | 0.0 | 0.0 | 0.21 | 0.21 | 0.21 | 62 | 1010.5 |
| 20260504183112 | 63 | 242 | 4.0 | 6.0 | 0.05 | 0.05 | 0.05 | 47 | 1009.4 |
| 20260504180131 | 67 | 322 | 0.0 | 3.0 | 0.00 | 0.00 | 0.00 | 29 | 1009.4 |
| 20260504170130 | 70 | 25 | 1.0 | 6.0 | 0.00 | 0.00 | 0.00 | 24 | 1008.3 |
| 20260504150111 | 76 | 316 | 7.0 | 8.0 | 0.00 | 0.00 | 0.00 | 21 | 1009.2 |
| 20260504140111 | 74 | 231 | 0.0 | 4.0 | 0.00 | 0.00 | 0.00 | 21 | 1009.2 |
| 20260504130111 | 76 | 131 | 3.0 | 6.0 | 0.00 | 0.00 | 0.00 | 22 | 1009.2 |
| 20260504120111 | 73 | 313 | 5.0 | 8.0 | 0.00 | 0.00 | 0.00 | 22 | 1010.2 |
| 20260504100112 | 71 | 211 | 3.0 | 6.0 | 0.00 | 0.00 | 0.00 | 27 | 1010.3 |
| 20260504080110 | 64 | 313 | 0.0 | 6.0 | 0.00 | 0.00 | 0.00 | 35 | 1010.4 |
| 20260504070111 | 61 | 291 | 4.0 | 6.0 | 0.00 | 0.00 | 0.00 | 36 | 1010.5 |
| 20260504060131 | 60 | 157 | 2.0 | 4.0 | 0.00 | 0.00 | 0.00 | 37 | 1009.5 |
| 20260504043111 | 58 | 187 | 0.0 | 3.0 | 0.00 | 0.00 | 0.00 | 37 | 1009.6 |
| 20260504040110 | 57 | 185 | 0.0 | 0.0 | 0.00 | 0.00 | 0.00 | 37 | 1009.6 |
| 20260504023110 | 58 | 193 | 0.0 | 0.0 | 0.00 | 0.00 | 0.00 | 35 | 1009.6 |
| 20260504013110 | 60 | 175 | 0.0 | 2.0 | 0.00 | 0.00 | 0.00 | 34 | 1009.5 |
| 20260504010110 | 61 | 202 | 0.0 | 4.0 | 0.00 | 0.00 | 0.00 | 33 | 1009.5 |
| 20260504000110 | 63 | 308 | 3.0 | 5.0 | 0.00 | 0.00 | 0.00 | 29 | 1008.4 |
| 20260503230117 | 63 | 284 | 0.0 | 4.0 | 0.00 | 0.00 | 0.00 | 29 | 1009.4 |
| 20260503213117 | 66 | 298 | 3.0 | 8.0 | 0.00 | 0.00 | 0.00 | 24 | 1008.4 |
| 20260503210117 | 67 | 331 | 4.0 | 7.0 | 0.00 | 0.00 | 0.00 | 22 | 1008.4 |
| 20260503203117 | 67 | 314 | 6.0 | 8.0 | 0.00 | 0.00 | 0.00 | 22 | 1008.3 |
| 20260503200117 | 68 | 249 | 7.0 | 11.0 | 0.00 | 0.00 | 0.00 | 20 | 1008.3 |
| 20260503193117 | 68 | 275 | 4.0 | 6.0 | 0.00 | 0.00 | 0.00 | 20 | 1008.3 |